カタログに戻る

FENGYUN 1C DEB

LostPO
NORAD 31729·DEBRIS·🇨🇳 China

打ち上げ May 10, 1999 から Taiyuan Satellite Launch Center

Loading…

次のパス (今後24時間)

TLE

古いSource: Space-Track

元期: Sep 6, 2024, 07:28 UTC

1 31729U 99025CEC 24250.31138002  .00025255  00000-0  11611-1 0  9998
2 31729  99.2828  67.6606 0067315 137.1310 223.5140 14.19900273571164

AllMySatでFENGYUN 1C DEBをリアルタイム追跡

Download on the App Store